Location: Wien
(48.2082°N, 16.3738°E)
Time: 12:36:06
(UTC+02:00)

Tiros 1 despin weight - Pass Details

Date: 21 September 2024
Orbit: 573 x 615 km, 48.2° (Epoch: 06 October)

Event Time Altitude Azimuth Distance (km) Brightness Sun altitude
Rises 03:19:16 0° 252° (WSW) 2,855 - -31.2°
Reaches altitude 10° 03:21:33 10° 250° (WSW) 1,959 - -30.9°
Maximum altitude 03:26:03 75° 166° (SSE) 638 - -30.4°
Exits shadow 03:28:11 31° 86° (E) 1,087 ? -30.1°
Drops below altitude 10° 03:30:36 10° 81° (E) 1,979 ? -29.8°
Sets 03:32:55 0° 80° (E) 2,888 ? -29.5°
